Location: Newark
(25.4800°N, 85.7200°E)
Time: 08:55:59
(UTC+00:00)

Explorer 11/Cluster Stage 4 - Visible Passes

Search period start: 26 August 2019 00:00
Search period end: 05 September 2019 00:00
Orbit: 467 x 1260 km, 28.8° (Epoch: 25 August)

Date Brightness Start Highest point End Pass type
(mag) Time Alt. Az. Time Alt. Az. Time Alt. Az.
30 Aug 8.0 23:27:35 10° SSW 23:32:09 33° SSE 23:37:43 10° E visible
31 Aug 7.6 23:16:56 10° SW 23:21:27 37° SSE 23:27:00 10° E visible
01 Sep 7.3 23:06:45 12° SW 23:10:47 42° SSE 23:16:17 10° E visible
02 Sep 6.9 22:57:02 18° SW 23:00:09 48° SSE 23:05:34 10° E visible
03 Sep 6.6 22:47:18 27° SW 22:49:33 55° SSE 22:54:50 10° E visible
04 Sep 6.2 22:37:32 39° SW 22:38:59 64° SSE 22:44:06 10° E visible
